Orbital Elements at Epoch 2459200.5 (2020-Dec-17.0) TDB
Reference: JPL 20 (heliocentric ecliptic J2000)
Element | Value | Uncertainty (1-sigma) | Units |
e | .04285180642898362 | 5.8139e-08 | |
a | 2.869281255739915 | 2.2843e-08 | au |
q | 2.746327370778637 | 1.8143e-07 | au |
i | .9513585692345656 | 9.0461e-06 | deg |
node | 338.4285331956407 | 0.00027434 | deg |
peri | 84.27525554988608 | 0.00030431 | deg |
M | 314.4731671899934 | 0.00013112 | deg |
tp | 2459425.003464046249 (2021-Jul-29.50346405) | 0.00064771 | TDB |
period | 1775.244225618204 4.86 | 2.12e-05 5.804e-08 | d yr |
n | .2027889992852307 | 2.4217e-09 | deg/d |
Q | 2.992235140701192 | 2.3822e-08 | au |
|
| | Orbit Determination Parameters
Additional Information
|